sat.trackr.live / text

‹ back to catalog

STARLINK-34319

NORAD 64268 · 2025-120N

PAYLOAD ACTIVE UNKNOWN

§ Identity

Operator
Country
US
Launch date
2025-06-04
Launch site
AFWTR
Launch vehicle
Mass (kg)
RCS (m²)

Purposes: comms

External: N2YO · Heavens-Above · Gunter

§ Orbital elements

Epoch: 2026-05-25T05:08:47.634144Z

Period
93.85 min
Inclination
53.1587°
Eccentricity
0.0001239
Mean motion
15.34400580 rev/d
Perigee alt
461.9 km
Apogee alt
463.5 km
Semi-major
6,840.8 km
B*
8.2280e-4
RAAN
119.0250°
Arg perigee
86.0348°
Mean anomaly
274.0796°
Rev number
5,565

§ Raw data

STARLINK-343191 64268U 25120N   26145.21444021  .00027526  00000+0  82280-3 0  99962 64268  53.1587 119.0250 0001239  86.0348 274.0796 15.34400580 55655

JSON: /api/v1/satellites/64268 · /tle

For live sub-satellite position, see the globe view (requires WebGL).

§ Visibility from observer

Set your observer location to see the next 7 days of passes ≥ 10°. The values pass through the URL so the page stays shareable.

No JS? Fill the form by hand. The geolocation button needs JavaScript.